This is the latest recevied weather packets stored in our database for station/object KD4EG. If no packets are shown the sender has not sent any weather packets the latest 10 day(s).
| Time | Temp. | Humidity | Pressure | Rain* | Wind** | Luminosity | Snow |
|---|---|---|---|---|---|---|---|
| 1777723107 | 9.44° C | 57% | 1016.8 hPa | 0 mm | - | 58 W/m² | - |
| 1777722804 | 9.44° C | 56% | 1016.5 hPa | 0 mm | - | 60 W/m² | - |
| 1777722500 | 9.44° C | 55% | 1016.7 hPa | 0 mm | - | 58 W/m² | - |
| 1777722197 | 9.44° C | 56% | 1016.3 hPa | 0 mm | - | 42 W/m² | - |
| 1777721894 | 9.44° C | 55% | 1016.3 hPa | 0 mm | - | 44 W/m² | - |
| 1777721592 | 9.44° C | 54% | 1016.3 hPa | 0 mm | - | 45 W/m² | - |
| 1777721290 | 9.44° C | 55% | 1016.3 hPa | 0 mm | - | 24 W/m² | - |
| 1777720987 | 9.44° C | 54% | 1016.4 hPa | 0 mm | - | 28 W/m² | - |
| 1777720684 | 9.44° C | 54% | 1016.2 hPa | 0 mm | - | 32 W/m² | - |
| 1777720381 | 9.44° C | 53% | 1016.3 hPa | 0 mm | - | 32 W/m² | - |
| 1777720079 | 9.44° C | 53% | 1016.4 hPa | 0 mm | - | 39 W/m² | - |
| 1777719777 | 9.44° C | 53% | 1016.3 hPa | 0 mm | - | 30 W/m² | - |
| 1777719474 | 9.44° C | 55% | 1016 hPa | 0 mm | - | 16 W/m² | - |
| 1777719170 | 9.44° C | 54% | 1016 hPa | 0 mm | - | 15 W/m² | - |
| 1777718868 | 9.44° C | 54% | 1016.2 hPa | 0 mm | - | 12 W/m² | - |
| 1777718566 | 9.44° C | 52% | 1016.2 hPa | 0 mm | - | 10 W/m² | - |
| 1777718263 | 9.44° C | 51% | 1016.3 hPa | 0 mm | - | 5 W/m² | - |
| 1777717960 | 9.44° C | 51% | 1016.3 hPa | 0 mm | - | 3 W/m² | - |
| 1777717657 | 9.44° C | 52% | 1016.4 hPa | 0 mm | - | 1 W/m² | - |
| 1777717354 | 9.44° C | 52% | 1016.2 hPa | 0 mm | - | 0 W/m² | - |
| 1777717052 | 10° C | 51% | 1016 hPa | 0 mm | - | 0 W/m² | - |
| 1777716750 | 10° C | 50% | 1016.3 hPa | 0 mm | - | 0 W/m² | - |
| 1777716447 | 10° C | 50% | 1016.3 hPa | 0 mm | - | 0 W/m² | - |
| 1777716146 | 10° C | 50% | 1016.4 hPa | 0 mm | - | 0 W/m² | - |
| 1777715844 | 10° C | 50% | 1016 hPa | 0 mm | - | 0 W/m² | - |
* Rain latest hour (hover to see other rain measurements)
** Current wind speed in m/s (hover to see current wind gust speed)